TimeMST,TemperatureF,Dew PointF,Humidity,Sea Level PressureIn,VisibilityMPH,Wind Direction,Wind SpeedMPH,Gust SpeedMPH,PrecipitationIn,Events,Conditions,WindDirDegrees,DateUTC
12:51 AM,30.9,24.1,76,30.28,5.0,WSW,4.6,-,N/A,,Haze,240,2014-01-01 07:51:00
1:51 AM,33.1,23.0,66,30.28,6.0,Calm,Calm,-,N/A,,Haze,0,2014-01-01 08:51:00
2:51 AM,30.0,25.0,82,30.31,4.0,Calm,Calm,-,N/A,,Haze,0,2014-01-01 09:51:00
3:51 AM,30.9,24.1,76,30.32,5.0,Calm,Calm,-,N/A,,Haze,0,2014-01-01 10:51:00
4:51 AM,28.9,25.0,85,30.35,4.0,SW,4.6,-,N/A,,Overcast,230,2014-01-01 11:51:00
5:51 AM,28.0,24.1,85,30.36,3.0,Calm,Calm,-,N/A,,Scattered Clouds,0,2014-01-01 12:51:00
6:46 AM,24.1,21.0,88,30.31,2.5,Calm,Calm,-,N/A,,Overcast,0,2014-01-01 13:46:00
6:51 AM,24.1,21.0,88,30.40,2.5,Calm,Calm,-,N/A,,Overcast,0,2014-01-01 13:51:00
7:01 AM,25.0,21.9,88,30.31,3.0,NNE,3.5,-,N/A,,Overcast,30,2014-01-01 14:01:00
7:51 AM,28.0,23.0,81,30.40,3.0,Calm,Calm,-,N/A,,Haze,0,2014-01-01 14:51:00
8:17 AM,24.1,19.9,84,30.34,2.5,North,4.6,-,N/A,,Mostly Cloudy,350,2014-01-01 15:17:00
8:27 AM,21.9,19.0,89,30.34,1.8,WNW,5.8,-,N/A,,Mostly Cloudy,300,2014-01-01 15:27:00
8:34 AM,24.1,21.0,88,30.35,2.0,NW,4.6,-,N/A,,Mostly Cloudy,320,2014-01-01 15:34:00
8:51 AM,23.0,19.9,88,30.45,2.0,SSE,3.5,-,N/A,,Overcast,150,2014-01-01 15:51:00
9:30 AM,21.9,19.0,89,30.38,1.8,SW,6.9,-,N/A,,Clear,230,2014-01-01 16:30:00
9:45 AM,24.1,19.9,84,30.38,2.0,SW,5.8,-,N/A,,Clear,220,2014-01-01 16:45:00
9:51 AM,25.0,21.9,88,30.46,2.0,SSW,3.5,-,N/A,,Clear,200,2014-01-01 16:51:00
10:51 AM,26.1,21.0,81,30.46,2.0,Calm,Calm,-,N/A,,Haze,0,2014-01-01 17:51:00
11:51 AM,28.9,23.0,78,30.44,2.5,Calm,Calm,-,N/A,,Haze,0,2014-01-01 18:51:00
12:51 PM,33.1,25.0,72,30.43,2.5,Calm,Calm,-,N/A,,Haze,0,2014-01-01 19:51:00
1:11 PM,34.0,25.0,70,30.37,3.0,Calm,Calm,-,N/A,,Haze,0,2014-01-01 20:11:00
1:51 PM,34.0,25.0,70,30.41,3.0,Calm,Calm,-,N/A,,Haze,0,2014-01-01 20:51:00
2:51 PM,36.0,26.1,67,30.41,3.0,Calm,Calm,-,N/A,,Haze,0,2014-01-01 21:51:00
3:51 PM,32.0,25.0,75,30.42,3.0,WSW,4.6,-,N/A,,Haze,240,2014-01-01 22:51:00
4:51 PM,30.9,24.1,76,30.44,3.0,Calm,Calm,-,N/A,,Haze,0,2014-01-01 23:51:00
5:51 PM,30.0,25.0,82,30.46,4.0,SSW,4.6,-,N/A,,Haze,200,2014-01-02 00:51:00
6:42 PM,26.1,21.9,84,30.38,2.5,Calm,Calm,-,N/A,,Clear,0,2014-01-02 01:42:00
6:51 PM,24.1,21.0,88,30.49,2.5,Calm,Calm,-,N/A,,Clear,0,2014-01-02 01:51:00
7:19 PM,19.9,16.0,85,30.39,3.0,East,3.5,-,N/A,,Clear,80,2014-01-02 02:19:00
7:51 PM,19.9,17.1,89,30.49,3.0,ENE,4.6,-,N/A,,Clear,60,2014-01-02 02:51:00
8:16 PM,15.1,12.9,91,30.39,2.0,Calm,Calm,-,N/A,,Clear,0,2014-01-02 03:16:00
8:26 PM,15.1,12.9,91,30.39,1.8,Calm,Calm,-,N/A,,Clear,0,2014-01-02 03:26:00
8:33 PM,18.0,14.0,84,30.39,2.5,Calm,Calm,-,N/A,,Clear,0,2014-01-02 03:33:00
8:39 PM,17.1,14.0,88,30.39,3.0,Calm,Calm,-,N/A,,Clear,0,2014-01-02 03:39:00
8:51 PM,19.0,15.1,85,30.52,2.5,Calm,Calm,-,N/A,,Clear,0,2014-01-02 03:51:00
8:59 PM,19.0,17.1,92,30.39,1.2,Calm,Calm,-,N/A,,Partly Cloudy,0,2014-01-02 03:59:00
9:04 PM,18.0,16.0,92,30.39,0.2,Calm,Calm,-,N/A,Fog,Light Freezing Fog,0,2014-01-02 04:04:00
9:51 PM,16.0,14.0,92,30.51,0.2,NNE,3.5,-,N/A,Fog,Light Freezing Fog,30,2014-01-02 04:51:00
10:39 PM,12.0,7.0,80,30.40,0.2,Calm,Calm,-,N/A,,Haze,0,2014-01-02 05:39:00
10:51 PM,10.9,8.1,88,30.54,0.2,Calm,Calm,-,N/A,Fog,Light Freezing Fog,0,2014-01-02 05:51:00
11:08 PM,12.9,7.0,77,30.40,1.2,Calm,Calm,-,N/A,,Haze,0,2014-01-02 06:08:00
11:10 PM,12.9,8.1,81,30.40,0.5,Calm,Calm,-,N/A,,Haze,0,2014-01-02 06:10:00
11:51 PM,12.0,7.0,80,30.52,0.2,Calm,Calm,-,N/A,,Haze,0,2014-01-02 06:51:00